Location: Tamazert
(32.6352°N, 5.2072°W)
Time: 07:31:38
(UTC+00:00)

Tiros 1 despin weight - Pass Details

Date: 12 October 2022
Orbit: 590 x 637 km, 48.2° (Epoch: 28 November)

Event Time Altitude Azimuth Distance (km) Brightness Sun altitude
Rises 15:47:26 0° 312° (NW) 2,838 ? 24.0°
Reaches altitude 10° 15:51:37 10° 350° (N) 1,948 ? 23.3°
Maximum altitude 15:52:46 11° 5° (N) 1,896 ? 23.0°
Drops below altitude 10° 15:53:56 10° 20° (NNE) 1,955 ? 22.8°
Sets 15:58:09 0° 58° (ENE) 2,875 ? 22.0°
